Tracking 28790 objects as of 19-Apr-2024
HD Live streaming from Space Station
objects crossing your sky now

FENGYUN 1C DEB

Track FENGYUN 1C DEB now!
10-day predictions


NORAD ID: 29875
Int'l Code: 1999-025FV
Perigee: 757.4 km
Apogee: 876.6 km
Inclination: 98.5 °
Period: 101.1 minutes
Semi major axis: 7188 km
RCS: 0.0547 m2 (small)
Launch date: May 10, 1999
Source: People's Republic of China (PRC)
Launch site: Taiyaun Space Center, China (TSC)

Note: This is SATELLITE DEBRIS
Your satellite tracking list
Your tracking list is empty




NASA's NSSDC Master Catalog

Two Line Element Set (TLE):
1 29875U 99025FV  24110.17617431  .00000315  00000-0  14831-3 0  9993
2 29875  98.4830 178.2574 0082929  26.5214  27.7399 14.24591482897527
Source of the keplerian elements: AFSPC